TimePDT,TemperatureF,Dew PointF,Humidity,Sea Level PressureIn,VisibilityMPH,Wind Direction,Wind SpeedMPH,Gust SpeedMPH,PrecipitationIn,Events,Conditions,WindDirDegrees,DateUTC
12:56 AM,46.9,37.9,71,29.88,10.0,Calm,Calm,-,N/A,,Clear,0,2012-10-21 07:56:00
1:56 AM,50.0,37.9,63,29.88,10.0,NNE,5.8,-,N/A,,Clear,20,2012-10-21 08:56:00
2:56 AM,48.9,37.0,64,29.88,10.0,Calm,Calm,-,N/A,,Clear,0,2012-10-21 09:56:00
3:56 AM,48.9,37.0,64,29.88,10.0,North,4.6,-,N/A,,Clear,10,2012-10-21 10:56:00
4:56 AM,46.9,36.0,66,29.88,10.0,Calm,Calm,-,N/A,,Clear,0,2012-10-21 11:56:00
5:56 AM,44.1,35.1,71,29.89,10.0,Calm,Calm,-,N/A,,Clear,0,2012-10-21 12:56:00
6:56 AM,43.0,35.1,74,29.90,10.0,Calm,Calm,-,N/A,,Clear,0,2012-10-21 13:56:00
7:56 AM,43.0,35.1,74,29.91,10.0,Calm,Calm,-,N/A,,Clear,0,2012-10-21 14:56:00
9:56 AM,48.0,36.0,63,29.93,10.0,Calm,Calm,-,N/A,,Clear,0,2012-10-21 16:56:00
10:56 AM,54.0,35.1,49,29.92,10.0,Calm,Calm,-,N/A,,Clear,0,2012-10-21 17:56:00
11:56 AM,59.0,33.1,38,29.91,10.0,SE,3.5,-,N/A,,Clear,130,2012-10-21 18:56:00
12:56 PM,63.0,30.0,29,29.88,10.0,Variable,3.5,-,N/A,,Clear,0,2012-10-21 19:56:00
1:56 PM,64.0,30.0,28,29.86,10.0,WNW,11.5,20.7,N/A,,Clear,290,2012-10-21 20:56:00
2:56 PM,66.0,30.9,27,29.84,10.0,WNW,10.4,-,N/A,,Clear,300,2012-10-21 21:56:00
3:56 PM,64.9,32.0,29,29.83,10.0,West,9.2,-,N/A,,Clear,260,2012-10-21 22:56:00
4:56 PM,63.0,34.0,34,29.84,10.0,West,10.4,-,N/A,,Clear,280,2012-10-21 23:56:00
5:56 PM,60.1,35.1,39,29.83,10.0,Calm,Calm,-,N/A,,Clear,0,2012-10-22 00:56:00
6:56 PM,57.0,37.0,47,29.83,10.0,Variable,3.5,-,N/A,,Clear,0,2012-10-22 01:56:00
7:56 PM,54.0,37.0,53,29.84,10.0,Calm,Calm,-,N/A,,Clear,0,2012-10-22 02:56:00
9:56 PM,52.0,39.0,61,29.82,10.0,Calm,Calm,-,N/A,,Mostly Cloudy,0,2012-10-22 04:56:00
10:56 PM,50.0,42.1,74,29.81,10.0,Calm,Calm,-,0.01,Rain,Light Rain,0,2012-10-22 05:56:00
11:44 PM,50.0,44.6,82,29.81,10.0,Calm,Calm,-,0.00,,Overcast,0,2012-10-22 06:44:00
11:56 PM,51.1,43.0,74,29.80,10.0,Calm,Calm,-,0.00,,Overcast,0,2012-10-22 06:56:00